Location: Carbonear
(47.7333°N, 53.2500°W)
Time: 02:03:28
(UTC+00:00)

AO-27 - Pass Details

Date: 14 December 2022
Orbit: 784 x 797 km, 98.9° (Epoch: 26 January)

Event Time Altitude Azimuth Distance (km) Brightness Sun altitude
Exits shadow 21:13:11 13° 30° (NNE) 2,206 9.5 -14.6°
Drops below altitude 10° 21:14:05 10° 20° (NNE) 2,382 9.8 -14.8°
Sets 21:17:22 0° 359° (N) 3,316 10.7 -15.3°
